EW9060 Weather Reports


time (UTC)temp
F
wind
direction
speed
knots
gust
knots
rain 1hr
in
rain 24hr
in
rain mn
in
humidity
%
barometer
mb
20260903141554 61 153 3.5 7.8 0.00 0.00 0.00 81 1015.6
20260903140053 61 152 0.9 7.0 0.00 0.00 0.00 81 1015.6
20260903134603 61 119 1.7 6.1 0.00 0.00 0.00 81 1015.4
20260903133051 61 139 1.7 7.0 0.00 0.00 0.00 80 1015.3
20260903131550 61 72 0.9 6.1 0.00 0.00 0.00 81 1015.4
20260903130053 61 137 2.6 6.1 0.00 0.00 0.00 80 1015.4
20260903124648 61 133 1.7 6.1 0.00 0.00 0.00 80 1015.6
20260903123048 61 159 1.7 7.8 0.00 0.00 0.00 80 1015.5
20260903121552 61 126 1.7 6.1 0.00 0.00 0.00 80 1015.5
20260903120053 61 155 1.7 6.1 0.00 0.00 0.00 80 1015.6
20260903114543 61 179 0.9 6.1 0.00 0.00 0.00 79 1015.6
20260903113047 61 188 1.7 7.8 0.00 0.00 0.00 79 1015.8
20260903111540 61 130 0.0 7.0 0.00 0.00 0.00 80 1015.9
20260903110040 61 124 1.7 5.2 0.00 0.00 0.00 80 1015.9
20260903104539 61 153 1.7 6.1 0.00 0.00 0.00 80 1015.9
20260903103038 61 139 1.7 6.1 0.00 0.00 0.00 80 1015.9
20260903101538 61 143 1.7 6.1 0.00 0.00 0.00 80 1016.0
20260903100037 61 218 0.9 4.3 0.00 0.00 0.00 79 1015.9
20260903094542 61 196 0.0 5.2 0.00 0.00 0.00 79 1015.9
20260903093034 61 147 0.9 7.0 0.00 0.00 0.00 78 1016.0
20260903091532 61 194 0.9 4.3 0.00 0.00 0.00 76 1016.3
20260903090030 61 164 0.0 6.1 0.00 0.00 0.00 75 1016.3
20260903084539 62 150 0.9 4.3 0.00 0.00 0.00 74 1016.2
20260903083027 62 133 0.9 4.3 0.00 0.00 0.00 73 1016.2
20260903081526 62 157 0.0 5.2 0.00 0.00 0.00 72 1016.2
20260903080024 62 159 0.9 2.6 0.00 0.00 0.00 71 1016.2
20260903074522 63 174 0.9 6.1 0.00 0.00 0.00 71 1016.1
20260903073021 63 145 1.7 6.1 0.00 0.00 0.00 70 1016.2
20260903071519 63 125 0.9 5.2 0.00 0.00 0.00 69 1016.1
20260903070016 64 142 0.9 3.5 0.00 0.00 0.00 68 1016.1
20260903064515 64 140 0.9 5.2 0.00 0.00 0.00 66 1016.1
20260903063014 65 158 0.0 3.5 0.00 0.00 0.00 64 1016.1
20260903061519 65 130 0.0 6.1 0.00 0.00 0.00 63 1016.0
20260903060015 66 148 0.0 5.2 0.00 0.00 0.00 62 1015.9
20260903054514 66 264 1.7 7.8 0.00 0.00 0.00 61 1015.9
20260903053022 67 221 2.6 6.1 0.00 0.00 0.00 60 1016.0
20260903051512 68 240 0.9 5.2 0.00 0.00 0.00 60 1016.1
20260903050011 68 239 0.9 6.1 0.00 0.00 0.00 59 1016.2
20260903044512 69 184 0.9 4.3 0.00 0.00 0.00 59 1016.2
20260903043024 70 202 0.0 3.5 0.00 0.00 0.00 58 1016.2
20260903041510 70 171 0.0 2.6 0.00 0.00 0.00 57 1016.0
20260903040009 71 299 0.0 3.5 0.00 0.00 0.00 55 1015.8
20260903034508 71 227 0.0 2.6 0.00 0.00 0.00 53 1015.6
20260903033007 72 192 0.9 6.1 0.00 0.00 0.00 52 1015.4
20260903031506 72 175 0.0 5.2 0.00 0.00 0.00 50 1015.3
20260903030007 73 169 0.0 4.3 0.00 0.00 0.00 49 1015.2
20260903024505 74 201 1.7 7.0 0.00 0.00 0.00 48 1015.2
20260903023004 74 273 0.9 4.3 0.00 0.00 0.00 46 1015.3
20260903021509 75 181 0.9 6.1 0.00 0.00 0.00 46 1015.4
20260903020003 76 175 1.7 7.0 0.00 0.00 0.00 45 1015.4
20260903014605 76 234 2.6 7.8 0.00 0.00 0.00 46 1015.5
20260903013059 77 172 1.7 10.4 0.00 0.00 0.00 46 1015.6
20260903011604 78 225 3.5 8.7 0.00 0.00 0.00 46 1015.6
20260903010057 78 288 3.5 8.7 0.00 0.00 0.00 45 1015.7
20260903004556 78 215 3.5 9.6 0.00 0.00 0.00 46 1015.7
20260903003054 79 150 3.5 9.6 0.00 0.00 0.00 46 1015.8
20260903001554 79 165 3.5 8.7 0.00 0.00 0.00 46 1015.9
20260903000056 79 188 2.6 7.8 0.00 0.00 0.00 47 1016.1
20260902234548 78 234 0.9 7.0 0.00 0.00 0.00 47 1016.2
20260902233047 78 268 1.7 8.7 0.00 0.00 0.00 48 1016.3
20260902231546 79 252 3.5 8.7 0.00 0.00 0.00 48 1016.5
20260902230045 79 228 3.5 8.7 0.00 0.00 0.00 48 1016.5
20260902224544 78 147 3.5 10.4 0.00 0.00 0.00 49 1016.7
20260902223042 78 165 3.5 8.7 0.00 0.00 0.00 49 1016.9
20260902221542 78 227 2.6 8.7 0.00 0.00 0.00 51 1016.9
20260902220045 77 89 4.3 10.4 0.00 0.00 0.00 50 1017.0
20260902214537 77 230 1.7 11.3 0.00 0.00 0.00 52 1017.1
20260902213036 77 232 0.9 7.0 0.00 0.00 0.00 52 1017.2
20260902211540 77 135 2.6 8.7 0.00 0.00 0.00 53 1017.3
20260902210105 77 236 1.7 7.0 0.00 0.00 0.00 52 1017.5
20260902204540 77 152 2.6 7.8 0.00 0.00 0.00 52 1017.5
20260902203035 77 221 2.6 7.8 0.00 0.00 0.00 51 1017.5
20260902201536 77 163 5.2 10.4 0.00 0.00 0.00 51 1017.7
20260902200033 77 211 5.2 12.2 0.00 0.00 0.00 51 1018.0
20260902194534 77 121 3.5 7.8 0.00 0.00 0.00 53 1018.1
20260902193027 75 169 2.6 9.6 0.00 0.00 0.00 55 1018.3
20260902191524 74 213 1.7 6.1 0.00 0.00 0.00 58 1018.5
20260902190025 73 244 0.0 3.5 0.00 0.00 0.00 59 1018.7
20260902184515 73 208 0.9 7.0 0.00 0.00 0.00 59 1018.7
20260902183012 72 258 1.7 6.1 0.00 0.00 0.00 60 1018.6
20260902181510 71 209 0.9 5.2 0.00 0.00 0.00 61 1018.6
20260902180007 70 140 0.9 3.5 0.00 0.00 0.00 63 1018.6
20260902174504 70 138 0.9 7.8 0.00 0.00 0.00 63 1018.7
20260902173001 69 175 0.0 6.1 0.00 0.00 0.00 64 1018.6
20260902171558 68 213 0.0 6.1 0.00 0.00 0.00 66 1018.5
20260902170055 67 200 0.0 4.3 0.00 0.00 0.00 68 1018.4
20260902164551 66 140 2.6 7.0 0.00 0.00 0.00 69 1018.3
20260902163050 66 250 0.0 6.1 0.00 0.00 0.00 71 1018.2
20260902161549 65 180 0.9 7.8 0.00 0.00 0.00 72 1018.1
20260902160145 65 158 1.7 7.0 0.00 0.00 0.00 74 1018.4
20260902154543 64 136 1.7 7.8 0.00 0.00 0.00 75 1018.3
20260902153041 63 168 0.9 6.1 0.00 0.00 0.00 77 1018.3
20260902151543 62 132 1.7 6.1 0.00 0.00 0.00 78 1018.2
20260902150034 61 140 1.7 4.3 0.00 0.00 0.00 79 1018.1
20260902144537 61 117 0.0 6.1 0.00 0.00 0.00 81 1017.9
20260902143034 61 92 0.9 4.3 0.00 0.00 0.00 81 1017.8